Location: Newark
(31.5350°N, 35.0986°E)
Time: 18:26:59
(UTC+00:00)

Vanguard 1 - Pass Details

Date: 25 September 2019
Orbit: 653 x 3830 km, 34.2° (Epoch: 22 October)

Event Time Altitude Azimuth Distance (km) Brightness Sun altitude
Rises 04:20:17 0° 289° (WNW) 7,741 14.0 10.0°
Reaches altitude 10° 04:26:03 10° 287° (WNW) 6,432 13.6 11.2°
Maximum altitude 04:44:33 63° 213° (SSW) 2,504 12.2 15.1°
Drops below altitude 10° 04:54:36 10° 134° (SE) 3,706 14.2 17.2°
Sets 04:57:01 0° 131° (SE) 4,389 14.5 17.7°
